STRATOSAT-TK 1 (RS52S)

Last updated on Mon Sep 15 2025 00:03:09 GMT+0000 (Coordinated Universal Time)

1 57167U 23091B 25257.22378192 .00046679 00000+0 87307-3 0 9995 2 57167 97.5415 324.3223 0005473 312.3324 47.7462 15.48570767122921
UTC large
Height (km)
Speed (km/s)
/
Latitude / Longitude
Inclination (degrees)
Orbital Period (minutes)
Azimuth
Elevation
Range (km)
Doppler Factor

Next 0 passes for location: London (51.5072 / 0.1276)

Sorry there are no passes over London.